Theta_e
351 358 363 362 362 362 362 362 362 363 362 363 363 363 361 360 359 360 360 361 362 362 358 354 355 355 354 354 354 355 356 355 355 355 355 354 353 352 351 350 350 347 349
354 358 361 362 362 362 361 361 362 361 361 361 362 361 360 359 359 359 361 361 361 359 356 354 355 356 355 354 353 353 353 355 355 354 354 353 353 353 352 350 349 348 350
355 359 359 362 362 361 361 361 360 360 360 360 360 359 359 359 360 360 361 361 361 359 356 354 356 356 355 355 354 354 354 355 355 353 352 349 349 354 350 349 349 349 349
356 358 358 363 361 361 360 360 359 360 359 359 359 359 359 359 360 361 361 361 359 358 356 354 356 356 356 355 356 356 357 356 356 354 348 345 347 351 350 349 350 349 349
355 356 358 362 361 360 360 359 359 359 359 358 359 359 359 361 360 360 361 360 359 357 356 353 355 357 356 355 355 356 357 357 356 353 350 350 345 348 349 350 349 349 349
352 355 361 362 361 360 360 360 359 359 358 358 358 358 359 360 360 360 361 360 359 356 354 354 355 356 356 355 355 355 355 355 351 343 343 342 349 349 351 350 349 350 348
352 356 359 361 361 360 360 359 359 359 358 358 358 358 358 358 359 360 360 359 358 357 354 353 354 355 355 354 353 352 352 350 346 341 338 341 346 349 355 353 351 351 351
354 355 357 361 360 360 360 359 358 358 358 359 358 358 358 357 358 358 359 359 359 357 356 354 355 354 353 352 352 351 351 349 344 339 338 337 343 350 355 356 355 354 352
356 355 356 357 358 359 359 358 358 357 357 358 358 358 358 358 358 358 358 357 357 357 356 355 355 353 352 351 351 350 350 348 344 342 340 339 340 349 354 357 357 358 355
353 353 351 353 353 355 355 359 358 357 357 357 357 358 358 358 359 358 356 356 356 355 355 355 355 353 352 351 351 351 351 349 344 341 340 339 342 345 353 357 359 357 357
351 350 350 351 352 354 354 356 358 357 358 357 357 357 355 353 355 356 356 355 356 355 354 354 354 353 352 352 352 351 350 344 341 339 338 340 343 345 349 358 359 358 357
345 348 350 350 351 352 355 354 353 353 354 353 353 353 350 349 349 352 354 355 355 356 355 354 353 353 352 347 343 345 344 342 340 339 337 341 345 346 349 353 357 359 358
344 346 348 350 351 352 352 353 352 353 352 351 351 351 348 348 348 350 348 349 350 352 350 349 348 347 345 343 341 339 336 333 333 335 336 343 346 346 349 353 354 356 358
341 343 347 349 350 351 353 352 351 352 352 350 351 349 347 344 344 344 345 345 345 346 345 345 343 342 341 341 339 338 336 334 332 332 335 342 346 346 348 354 356 357 357
338 343 346 350 349 351 350 350 351 351 350 349 350 349 347 343 341 342 342 342 342 343 343 342 341 340 339 339 339 338 338 337 335 335 335 341 346 348 351 355 358 359 359
335 341 345 347 349 350 350 350 349 350 350 349 348 348 346 344 342 339 340 340 340 341 342 342 342 341 340 340 339 339 338 339 339 340 340 341 345 348 352 356 358 360 360
332 339 343 345 345 346 347 349 348 349 348 346 345 346 347 345 342 341 338 339 340 341 341 341 342 342 340 340 339 340 342 343 344 345 346 347 348 349 351 352 354 356 357
332 334 339 343 343 343 346 345 343 344 343 344 344 344 346 346 344 339 339 339 341 341 341 340 341 341 340 341 339 340 343 345 347 348 349 350 347 346 344 348 352 353 352
332 333 337 340 340 340 339 340 339 341 342 343 343 342 343 344 344 341 339 339 341 342 342 341 340 340 341 341 339 341 341 341 342 344 343 341 341 341 337 338 344 343 342
333 331 334 337 337 338 338 337 336 337 338 339 340 343 346 346 346 344 343 343 344 344 344 341 340 337 337 335 336 337 338 340 342 340 340 338 336 337 332 330 331 331 336
330 331 328 335 335 338 337 336 335 334 335 337 340 340 339 339 339 337 338 339 340 341 343 341 338 335 335 334 333 332 335 336 336 335 338 336 332 331 328 328 328 330 329
328 328 327 330 335 338 338 333 335 333 334 335 335 336 337 336 337 335 333 334 338 338 333 331 333 334 335 336 331 326 324 327 328 322 328 329 329 327 324 326 326 328 331
322 324 327 327 330 334 329 328 328 328 328 329 330 332 335 336 336 336 335 335 335 335 332 330 328 333 330 332 333 328 318 317 317 319 321 322 325 323 324 325 327 328 330
322 322 325 326 329 329 328 328 327 325 324 326 326 331 333 335 336 339 338 338 338 335 333 331 335 334 334 331 330 331 326 319 312 312 320 320 321 321 324 324 325 326 328
319 321 324 325 326 327 326 326 324 323 325 326 325 325 326 332 334 336 338 339 335 333 335 336 336 335 334 329 328 327 326 324 318 315 316 318 319 321 322 323 324 324 324
323 326 328 328 326 326 326 325 325 324 324 323 324 326 325 327 324 325 327 329 331 335 335 334 335 334 333 332 330 327 322 318 317 315 314 315 316 320 322 321 321 322 322
Wind_Speed
8 13 18 17 17 19 18 18 20 18 18 18 18 19 20 19 18 17 16 15 13 12 12 12 12 13 14 14 14 14 12 13 13 12 11 11 10 9 9 9 8 7 8
15 15 21 17 17 20 20 17 18 20 17 17 18 18 19 18 17 16 15 14 12 12 12 12 13 14 14 14 13 13 13 12 10 10 10 9 8 8 9 9 8 7 7
13 11 14 16 18 19 20 19 18 18 17 17 18 18 18 17 17 15 14 13 12 13 12 12 13 14 14 14 13 13 13 11 9 9 8 4 3 9 9 9 9 9 7
14 12 9 15 15 17 19 19 19 19 17 17 17 17 17 16 16 15 14 13 13 13 12 12 13 14 14 13 12 11 12 12 10 8 4 5 5 7 8 10 10 9 9
11 9 10 14 14 16 18 18 17 19 19 17 16 17 17 16 14 14 13 12 13 12 12 12 12 12 12 11 9 7 7 8 7 5 4 4 4 7 9 10 11 10 10
10 8 13 13 13 15 17 17 17 17 18 17 15 14 14 14 13 12 12 12 11 11 11 11 10 10 10 9 8 7 5 4 3 1 1 4 6 8 10 10 11 11 11
10 9 10 14 14 15 16 17 17 16 16 15 14 13 12 11 10 10 9 8 7 7 9 9 8 7 8 8 7 6 5 2 1 1 2 3 6 11 12 11 11 11 12
13 10 9 13 12 13 15 16 17 15 16 15 14 13 11 9 8 7 7 7 6 5 6 6 6 6 6 7 6 5 4 2 0 1 3 2 3 10 12 12 11 12 12
12 11 9 8 11 11 8 11 15 17 16 14 13 12 12 10 8 6 6 5 4 4 4 5 5 6 6 6 6 5 5 4 3 2 3 2 5 6 12 12 13 13 13
12 9 9 8 8 8 7 9 9 12 15 17 16 13 11 10 8 6 6 4 3 4 5 6 6 7 6 7 7 7 6 6 3 3 3 4 8 8 11 14 13 13 13
11 13 12 8 7 9 9 10 9 11 9 9 10 13 12 6 6 6 6 5 4 5 6 6 7 7 7 8 8 8 9 2 4 4 3 9 11 11 11 13 14 15 16
16 14 14 14 13 10 7 9 9 10 7 5 5 5 3 4 3 4 5 6 5 6 6 7 8 8 8 3 3 8 3 5 5 5 4 11 12 12 12 13 14 16 17
18 14 16 15 15 16 13 9 6 5 5 5 8 7 5 4 3 3 2 1 1 4 2 4 4 3 4 3 4 4 5 5 4 4 7 11 11 13 13 13 14 15 16
10 10 9 8 9 9 7 6 6 5 5 5 6 7 4 3 3 3 2 3 3 2 3 4 3 4 4 5 5 7 6 6 4 4 6 12 12 13 14 13 14 14 14
5 6 8 7 6 7 5 8 6 6 5 4 5 5 6 5 4 3 3 3 3 3 4 5 4 4 5 6 6 6 8 7 8 5 4 12 12 12 13 14 12 12 12
6 8 9 10 9 8 8 8 7 6 6 5 4 6 6 4 4 4 2 3 4 5 4 4 5 5 6 5 6 7 8 8 7 7 6 7 12 13 12 12 10 10 11
4 8 12 12 9 9 10 9 8 8 7 6 5 6 9 9 6 5 5 4 5 5 5 4 6 5 5 4 9 7 6 8 7 7 6 5 6 8 9 7 7 9 9
5 6 5 8 11 11 10 8 5 6 5 5 6 7 10 9 9 8 6 6 6 4 4 4 4 3 3 4 7 6 4 5 7 7 5 4 2 3 5 3 5 8 7
4 5 5 5 8 8 6 5 6 7 7 6 5 7 7 10 11 8 6 8 6 4 4 4 6 4 2 4 4 6 5 7 6 5 5 7 6 4 4 3 5 8 7
6 5 6 5 6 5 5 4 3 3 2 2 1 3 3 3 4 3 4 5 4 5 4 3 5 1 3 2 3 8 7 7 4 4 5 5 4 7 5 4 3 3 7
7 7 6 6 6 7 4 4 2 3 2 1 1 2 1 2 4 4 4 2 1 2 2 2 1 0 3 2 3 7 4 7 6 7 5 5 7 7 6 3 4 3 3
10 7 8 8 7 5 3 3 1 2 2 2 2 2 3 3 4 4 3 4 5 4 4 3 2 1 2 3 5 1 6 5 5 4 3 7 11 3 6 4 4 4 4
8 11 9 5 6 5 6 4 3 3 2 2 2 1 2 4 2 3 5 4 6 6 8 9 5 5 6 3 7 3 3 3 4 4 4 5 5 4 4 4 5 5 5
9 7 7 7 7 6 6 3 1 2 2 1 1 1 2 2 3 3 4 5 6 5 4 3 2 3 2 9 2 4 2 4 3 6 3 4 3 5 5 4 4 6 5
8 7 8 9 8 7 6 5 4 2 2 2 1 3 3 2 2 1 3 4 5 4 3 5 4 6 6 4 5 3 4 4 7 7 12 6 2 4 5 4 5 5 6
9 9 11 12 8 6 7 6 6 4 3 4 4 4 5 3 4 7 6 5 6 4 4 6 8 9 8 8 6 7 5 5 3 5 10 6 7 6 5 5 5 6 5
Wind_Direction
165 152 153 147 140 126 120 116 114 113 116 120 121 121 121 122 129 133 135 135 132 131 128 124 118 111 108 108 110 107 113 118 119 120 120 122 128 139 141 136 133 138 134
136 148 153 145 138 128 124 122 119 119 119 119 119 118 119 124 130 134 136 134 133 137 135 130 125 120 116 114 116 121 122 118 122 127 132 134 145 157 149 145 148 146 143
126 137 143 142 138 133 131 129 124 118 118 117 117 119 123 130 136 137 137 137 141 145 144 141 135 125 122 125 129 130 126 125 132 140 142 140 149 158 162 157 161 154 156
126 137 135 141 136 132 130 130 130 125 121 120 122 125 130 136 138 139 140 140 145 149 149 148 142 138 136 138 139 141 138 140 148 153 151 165 176 171 175 171 171 171 166
116 122 141 138 133 132 130 128 129 127 126 127 130 135 137 139 140 141 141 140 149 154 157 157 151 147 143 145 144 146 144 148 155 163 180 194 193 191 197 188 183 182 176
113 115 136 135 133 135 132 130 128 128 129 132 134 135 138 139 138 139 144 146 156 162 164 164 158 157 153 152 152 151 158 155 120 111 265 252 210 201 204 205 199 192 188
111 122 132 138 139 139 135 132 132 132 131 132 132 135 136 134 137 138 140 143 157 165 168 171 168 170 162 160 166 169 175 195 126 335 326 328 208 201 198 209 212 212 204
126 123 128 137 136 140 142 140 138 137 135 137 139 140 141 142 142 141 142 148 164 173 179 185 189 189 180 178 184 192 200 222 40 301 297 303 228 217 206 212 217 216 213
123 128 129 132 140 131 139 144 144 144 142 141 144 145 146 147 147 148 147 156 167 183 203 212 215 217 212 210 214 219 224 230 204 218 260 271 275 253 227 220 224 225 217
135 135 142 144 148 137 135 139 149 154 155 153 155 153 152 155 156 158 175 183 194 214 222 231 235 241 243 247 247 248 253 261 255 259 259 251 258 262 245 228 227 226 224
149 155 151 155 156 155 149 154 152 160 155 155 159 160 159 162 165 183 184 201 219 236 248 253 257 260 263 267 275 274 274 261 256 256 250 257 258 258 247 233 231 226 225
168 171 165 162 170 157 162 160 159 162 158 157 155 159 141 136 148 168 195 215 233 247 255 261 265 267 273 284 289 293 296 279 273 263 262 262 260 260 259 252 245 236 232
179 178 187 179 170 166 165 164 166 166 160 165 167 170 160 152 165 159 160 195 211 266 282 293 292 273 270 274 279 282 281 278 270 269 265 274 271 271 267 262 259 248 240
189 188 183 175 168 169 153 146 157 168 172 172 180 156 155 160 170 173 180 185 200 206 253 254 261 271 276 274 269 277 269 270 272 269 268 270 265 265 269 265 263 256 244
134 157 161 156 161 154 160 140 147 166 170 170 178 172 168 165 175 169 203 197 200 196 221 245 250 260 262 260 260 259 271 268 267 263 266 272 266 265 272 277 267 253 249
159 148 148 158 163 161 160 151 152 173 167 174 184 180 164 170 176 164 188 228 232 223 229 224 238 249 262 262 268 252 258 258 260 262 267 268 257 258 262 264 269 266 259
178 178 175 169 161 160 149 154 169 179 175 185 182 187 189 172 177 177 164 228 226 207 223 230 227 220 242 248 263 263 258 263 261 262 256 263 269 263 244 226 266 274 275
163 180 162 159 167 172 173 165 162 167 172 187 178 192 191 185 181 181 194 191 226 218 218 212 264 263 268 254 270 265 266 265 263 261 274 274 275 290 276 198 228 249 259
147 139 162 175 185 177 152 147 147 168 178 181 189 201 197 196 199 180 204 194 178 225 230 227 223 183 230 268 271 276 260 256 257 273 286 268 251 234 240 246 239 256 267
162 164 169 169 160 139 118 111 113 145 163 151 230 296 213 225 210 274 251 244 179 153 259 255 250 189 151 160 306 275 266 263 260 219 233 261 253 236 221 218 228 236 263
177 187 182 168 169 154 146 148 151 195 122 176 183 274 197 137 164 164 220 183 153 213 213 246 249 110 340 54 299 275 281 254 251 240 226 241 255 242 227 204 224 237 277
191 190 184 190 176 152 108 86 107 138 208 185 191 203 196 190 176 207 194 199 207 200 187 140 178 41 238 230 260 291 291 294 279 265 262 252 237 232 247 236 234 237 252
190 194 196 149 123 118 100 110 66 56 37 21 309 242 217 234 261 266 274 262 221 200 221 211 173 179 244 257 200 210 216 266 343 312 283 240 230 227 246 249 242 245 234
202 102 113 114 119 115 128 119 53 51 64 274 251 260 250 267 250 236 252 279 266 235 220 202 231 236 198 251 161 209 147 172 224 320 309 293 249 245 245 251 257 263 243
112 117 116 118 113 121 132 152 144 142 199 194 350 4 331 353 90 201 300 255 229 211 202 221 245 240 207 182 205 173 192 204 210 224 273 263 304 264 257 244 246 245 250
103 99 106 108 101 114 122 125 123 103 71 53 32 49 43 33 342 19 26 28 3 346 267 234 218 211 213 208 191 186 191 179 176 207 235 268 255 256 244 243 243 252 257